Date,TemperatureHighF,TemperatureAvgF,TemperatureLowF,DewpointHighF,DewpointAvgF,DewpointLowF,HumidityHigh,HumidityAvg,HumidityLow,PressureMaxIn,PressureMinIn,WindSpeedMaxMPH,WindSpeedAvgMPH,GustSpeedMaxMPH,PrecipitationSumIn
2013-2-1,45.0,31.3,17.0,-99.9,-99.9,-99.9,0,0,100,0.00,0.00,26,14,32,0.00
2013-2-2,53.0,40.1,30.0,-99.9,-99.9,-99.9,0,0,100,0.00,0.00,22,14,26,0.00
2013-2-3,51.0,39.6,27.0,-99.9,-99.9,-99.9,0,0,100,0.00,0.00,18,8,23,0.00
2013-2-4,53.0,38.9,29.0,-99.9,-99.9,-99.9,0,0,100,0.00,0.00,17,10,20,0.00
2013-2-5,57.0,41.8,30.0,-99.9,-99.9,-99.9,0,0,100,0.00,0.00,15,10,20,0.00
2013-2-6,62.0,41.6,27.0,-99.9,-99.9,-99.9,0,0,100,0.00,0.00,16,10,20,0.00
2013-2-7,54.0,42.9,29.0,-99.9,-99.9,-99.9,0,0,100,0.00,0.00,20,11,25,0.00
2013-2-8,54.0,38.4,24.0,-99.9,-99.9,-99.9,0,0,100,0.00,0.00,26,16,32,0.00
2013-2-9,55.0,41.0,33.0,-99.9,-99.9,-99.9,0,0,100,0.00,0.00,31,20,40,0.00
2013-2-10,43.0,32.3,25.0,-99.9,-99.9,-99.9,0,0,100,0.00,0.00,36,25,47,0.00
2013-2-11,37.0,27.8,18.0,-99.9,-99.9,-99.9,0,0,100,0.00,0.00,16,8,21,0.00
2013-2-12,46.0,32.6,23.0,-99.9,-99.9,-99.9,0,0,100,0.00,0.00,19,9,22,0.00
2013-2-13,54.0,35.9,25.0,-99.9,-99.9,-99.9,0,0,100,0.00,0.00,22,14,27,0.00
2013-2-22,24.0,18.6,12.0,-99.9,-99.9,-99.9,0,0,100,0.00,0.00,8,1,9,0.00
2013-2-23,35.0,24.9,13.0,-99.9,-99.9,-99.9,0,0,100,0.00,0.00,17,12,19,0.00
2013-2-24,32.0,24.1,17.0,-99.9,-99.9,-99.9,0,0,100,0.00,0.00,19,8,23,0.00
2013-2-25,33.0,28.9,20.0,-99.9,-99.9,-99.9,0,0,100,0.00,0.00,21,14,25,0.00
2013-2-26,32.0,21.6,10.0,-99.9,-99.9,-99.9,0,0,100,0.00,0.00,13,8,15,0.00
2013-2-27,34.0,28.1,21.0,-99.9,-99.9,-99.9,0,0,100,0.00,0.00,24,14,29,0.00
2013-2-28,36.0,27.4,21.0,-99.9,-99.9,-99.9,0,0,100,0.00,0.00,16,9,18,0.00